Regional Weather Roundup
Issued by NWS State College, PA

Home | Current Version | Previous Version | Graphics & Text | Print | Product List | Glossary On
Versions: 1 2 3 4 5 6 7 8 9 10 11 12 13 14 15 16 17 18 19 20 21 22 23 24 25 26 27 28 29 30 31 32 33 34 35 36 37 38 39 40 41 42 43 44 45 46 47 48 49 50
000
ASUS41 KCTP 272110
RWRCTP

REGIONAL WEATHER ROUNDUP
NATIONAL WEATHER SERVICE STATE COLLEGE PA
500 PM EDT FRI MAY 27 2016

Note: "fair" indicates few or no clouds below 12,000 feet with no
significant weather and/or obstructions to visibility.

* = STATION THAT DOES NOT REPORT PRECIPITATION /E.G. RAIN...SNOW...ETC/
    THUNDER OR FOG.

PAZ002>004-007>009-013>016-020>023-029>032-272200-
WESTERN PENNSYLVANIA

CITY           SKY/WX    TMP DP  RH WIND       PRES   REMARKS
ERIE           CLOUDY    76  63  64 NW3       30.01F
MEADVILLE      MOSUNNY   81  59  47 SW6       30.04F
FRANKLIN*      PTSUNNY   82  59  44 SW9       30.07S
NEW CASTLE     FAIR      85  63  47 SW7       30.03F
BEAVER COUNTY  PTSUNNY   82  64  54 SW5       30.04F
BUTLER*        MOSUNNY   84  63  48 SW9       30.06F
PITTSBURGH INT PTSUNNY   87  59  38 W12       30.03F
PITTSBURGH     MOSUNNY   85  59  41 SW8       30.03F
INDIANA*       SUNNY     86  64  48 SW9       30.08F
LATROBE        MOSUNNY   84  64  51 W9        30.05F
WASHINGTON CO* MOSUNNY   84  64  51 S8        30.05F
$$

PAZ004>006-010>012-017>019-024>028-033>037-041-042-045-046-049>053-272200-
CENTRAL PENNSYLVANIA

CITY           SKY/WX    TMP DP  RH WIND       PRES   REMARKS
BRADFORD       MOSUNNY   82  57  42 SW13G18   30.07S
DUBOIS         MOSUNNY   81  62  52 W12       30.06F
CLEARFIELD     SUNNY     85  60  42 W13G18    30.05F
JOHNSTOWN      MOSUNNY   83  57  41 NW10      30.09F
ALTOONA        LGT RAIN  73  66  78 E9        30.08F
STATE COLLEGE  MOSUNNY   86  64  48 SW6       30.04F
WILLIAMSPORT   PTSUNNY   85  63  47 NE9       29.98F
SELINSGROVE    MOSUNNY   89  65  44 S8        30.00F
FT INDIANTOWN  SUNNY     88  65  47 S8        30.02S
CAPITAL CITY   MOSUNNY   89  65  44 SW8       30.01F
HARRISBURG     PTSUNNY   88  67  49 VRB3      30.00F
YORK           MOSUNNY   87  67  51 VRB3      30.02F
$$

PAZ038>040-043-044-047-048-054-055-060>062-067>071-272200-
EASTERN PENNSYLVANIA

CITY           SKY/WX    TMP DP  RH WIND       PRES   REMARKS
SCRANTON       SUNNY     87  62  43 SW8       30.01F
MOUNT POCONO   SUNNY     79  63  57 S13       30.08S
ALLENTOWN      PTSUNNY   89  65  44 SW13G20   30.01F
QUAKERTOWN*    CLEAR     90  66  45 SW10      30.04S
READING        MOSUNNY   90  65  43 SW9       30.01F
LANCASTER      CLOUDY    88  66  48 SW9       30.02F
COATESVILLE    PTCLDY    84  68  58 VRB5G12   30.06F
POTTSTOWN      PTSUNNY   86  67  52 S8        30.04S
BLUE BELL      PTSUNNY   86  66  51 S8        30.02F
DOYLESTOWN     MOSUNNY   87  63  44 SW8       30.02S
WILLOW GROVE   NOT AVBL
NORTH PHILA    MOSUNNY   88  66  48 SW14G20   30.03S
PHILADELPHIA   MOSUNNY   89  63  41 SW13      30.03F
$$




USA.gov is the U.S. government's official web portal to all federal, state and local government web resources and services.